Weather Roundup
Issued by NWS Springfield, MO

Home | Current Version | Previous Version | Text Only | Print | Product List | Glossary On
Versions: 1 2 3 4 5 6 7 8 9 10 11 12 13 14 15 16 17 18 19 20 21 22 23 24 25 26 27 28 29 30 31 32 33 34 35 36 37 38 39 40 41 42 43 44 45 46 47 48 49 50
605
NZUS99 KSGF 281707
HRRSGF

HOURLY WEATHER
NATIONAL WEATHER SERVICE SPRINGFIELD MO
1200 PM CDT THU APR 28 2016

......SGF CWA......

CITY           SKY/WX    TMP DP  RH WIND       PRES   REMARKS
SPRINGFIELD    SUNNY     64  42  44 W6        29.95S
JOPLIN         SUNNY     62  44  51 NW6       29.97S
WEST PLAINS    SUNNY     70  42  36 W12G18    29.94S
ROLLA          SUNNY     62  48  60 W13G21    29.91R
OSAGE BEACH    SUNNY     63  41  45 W10G17    29.93F
BRANSON        MOSUNNY   66  41  39 NW3       29.97S

......SURROUNDING SGF CWA......

CITY           SKY/WX    TMP DP  RH WIND       PRES   REMARKS
CHANUTE        SUNNY     58  41  53 NW13      29.97R
PARSONS        SUNNY     62  45  53 N7        29.99R
COFFEYVILLE    SUNNY     61  42  49 VRB3      29.98R
EMPORIA        MOSUNNY   55  43  63 NW13G18   29.97R
GROVE OK       SUNNY     64  45  48 CALM      29.99S
ROGERS AR      SUNNY     66  45  46 VRB6      29.98S
SILOAM SPRINGS SUNNY     64  43  45 CALM      29.99R
HARRISON AR    SUNNY     69  43  38 N13       29.96F
NEAR YELLVILLE SUNNY    N/A N/A N/A W10       29.93S

......KANSAS AND MISSOURI......

CITY           SKY/WX    TMP DP  RH WIND       PRES   REMARKS
KANSAS CTY INT CLOUDY    52  45  77 W8        29.96R
DOWNTOWN KC    CLOUDY    55  44  66 SW10      29.95R
COLUMBIA       MOSUNNY   60  47  61 W12G21    29.93R
SEDALIA        PTSUNNY   58  48  69 W10       29.95R
ST JOSEPH      CLOUDY    52  46  80 W12       29.94R
ST LOUIS       MOSUNNY   68  49  50 W15       29.88R
SPIRIT OF STL  MOSUNNY   65  50  58 SW12      29.88R
KIRKSVILLE     CLOUDY    55  46  71 SW9G18    29.89R
WICHITA        CLOUDY    57  39  51 N13       29.99R
TOPEKA         PTSUNNY   54  44  69 W10G20    29.97S
OLATHE         MOSUNNY   55  45  68 W8G20     29.95S

......TENNESSEE......

CITY           SKY/WX    TMP DP  RH WIND       PRES   REMARKS
MEMPHIS        MOSUNNY   81  54  39 W6        29.95R
NASHVILLE      PTSUNNY   79  62  56 S7G17     29.90S

......ARKANSAS.......

CITY           SKY/WX    TMP DP  RH WIND       PRES   REMARKS
FAYETTEVILLE   SUNNY     68  44  42 N3        29.97S
FT SMITH       SUNNY     71  42  35 VRB3      29.95F
LITTLE ROCK    MOSUNNY   77  52  41 VRB6      29.96R

......OKLAHOMA.......

CITY           SKY/WX    TMP DP  RH WIND       PRES   REMARKS
TULSA          PTSUNNY   67  46  47 CALM      29.96S
PONCA CITY     CLOUDY    61  42  49 MISG      29.99R
MCALESTER      MOSUNNY   71  48  43 VRB5      29.95F
OKLAHOMA CITY  PTSUNNY   66  45  46 NE10      29.96S

......IOWA............

CITY           SKY/WX    TMP DP  RH WIND       PRES   REMARKS
DES MOINES     CLOUDY    54  44  69 W8        29.85R
QUAD CITIES    CLOUDY    52  48  86 E10       29.85S FOG

......ILLINOIS........

CITY           SKY/WX    TMP DP  RH WIND       PRES   REMARKS
QUINCY         CLOUDY    59  48  67 W12       29.87R
CHICAGO        CLOUDY    45  41  86 NE13      29.89S




USA.gov is the U.S. government's official web portal to all federal, state and local government web resources and services.